• In Uzbekistan
  • List of Countries
  • For 7 days
  • Water Temperature
  • Satellite Maps
  • Weather Map
  • Weather Widgets
  • user-avatar
    Login

    Hourly Weather Ali Bayramli

    Today, 9 December, Friday

    Time Temperature Precipitation Wind Pressure Humidity
    00:00 -2°C° 0 mm 2 mps 772 mmHg 73%
    01:00 -2°C° 0 mm 2 mps 771 mmHg 74%
    02:00 -2°C° 0 mm 3 mps 770 mmHg 75%
    03:00 -2°C° 0 mm 3 mps 769 mmHg 76%
    04:00 -2°C° 0 mm 3 mps 768 mmHg 75%
    05:00 -3°C° 0 mm 4 mps 768 mmHg 74%
    06:00 -4°C° 0 mm 4 mps 767 mmHg 74%
    07:00 -4°C° 0 mm 5 mps 766 mmHg 70%
    08:00 -3°C° 0 mm 6 mps 765 mmHg 66%
    09:00 -3°C° 0 mm 7 mps 763 mmHg 61%
    10:00 -1°C° 0 mm 7 mps 763 mmHg 54%
    11:00 0°C° 0 mm 8 mps 762 mmHg 48%
    12:00 +1°C° 0 mm 8 mps 761 mmHg 42%
    13:00 +1°C° 0 mm 8 mps 761 mmHg 42%
    14:00 +3°C° 0 mm 7 mps 761 mmHg 42%
    15:00 +3°C° 0 mm 7 mps 760 mmHg 42%
    16:00 +2°C° 0 mm 7 mps 760 mmHg 44%
    17:00 0°C° 0 mm 7 mps 760 mmHg 47%
    18:00 -1°C° 0 mm 7 mps 760 mmHg 49%
    19:00 -1°C° 0 mm 7 mps 760 mmHg 49%
    20:00 -1°C° 0 mm 7 mps 760 mmHg 50%
    21:00 -1°C° 0 mm 7 mps 760 mmHg 50%
    22:00 -1°C° 0 mm 7 mps 760 mmHg 52%
    23:00 -1°C° 0 mm 6 mps 760 mmHg 54%

    Tomorrow, 10 December, Saturday

    Time Temperature Precipitation Wind Pressure Humidity
    00:00 -1°C° 0 mm 6 mps 760 mmHg 56%
    01:00 -1°C° 0 mm 6 mps 760 mmHg 58%
    02:00 -2°C° 0 mm 6 mps 760 mmHg 59%
    03:00 -2°C° 0 mm 6 mps 760 mmHg 61%
    04:00 -2°C° 0 mm 6 mps 760 mmHg 61%
    05:00 -2°C° 0 mm 6 mps 760 mmHg 61%
    06:00 -2°C° 0 mm 6 mps 759 mmHg 61%
    07:00 -1°C° 0 mm 6 mps 759 mmHg 58%
    08:00 +1°C° 0 mm 5 mps 759 mmHg 55%
    09:00 +2°C° 0 mm 5 mps 759 mmHg 53%
    10:00 +4°C° 0 mm 6 mps 759 mmHg 50%
    11:00 +5°C° 0 mm 6 mps 758 mmHg 47%
    12:00 +7°C° 0 mm 6 mps 758 mmHg 45%
    13:00 +7°C° 0 mm 6 mps 757 mmHg 46%
    14:00 +8°C° 0 mm 5 mps 757 mmHg 48%
    15:00 +8°C° 0 mm 5 mps 756 mmHg 50%
    16:00 +7°C° 0 mm 5 mps 757 mmHg 53%
    17:00 +6°C° 0 mm 5 mps 757 mmHg 56%
    18:00 +5°C° 0 mm 5 mps 757 mmHg 59%
    19:00 +5°C° 0 mm 5 mps 757 mmHg 59%
    20:00 +3°C° 0 mm 5 mps 757 mmHg 59%
    21:00 +3°C° 0 mm 5 mps 757 mmHg 60%
    22:00 +3°C° 0 mm 5 mps 757 mmHg 60%
    23:00 +3°C° 0 mm 5 mps 757 mmHg 60%

    Day after tomorrow, 11 December, Sunday

    Time Temperature Precipitation Wind Pressure Humidity
    00:00 +3°C° 0 mm 5 mps 757 mmHg 60%
    01:00 +4°C° 0 mm 4 mps 757 mmHg 63%
    02:00 +4°C° 0 mm 4 mps 758 mmHg 65%
    03:00 +4°C° 0 mm 3 mps 758 mmHg 67%
    04:00 +3°C° 0 mm 3 mps 758 mmHg 70%
    05:00 +4°C° 0 mm 2 mps 758 mmHg 72%
    06:00 +3°C° 0 mm 2 mps 759 mmHg 75%
    07:00 +4°C° 0 mm 2 mps 759 mmHg 71%
    08:00 +7°C° 0 mm 1 mps 760 mmHg 68%
    09:00 +8°C° 0 mm 1 mps 760 mmHg 64%
    10:00 +8°C° 0 mm 2 mps 760 mmHg 61%
    11:00 +9°C° 0 mm 2 mps 760 mmHg 58%
    12:00 +10°C° 0 mm 3 mps 759 mmHg 55%
    13:00 +10°C° 0 mm 3 mps 759 mmHg 54%
    14:00 +10°C° 0 mm 3 mps 759 mmHg 54%
    15:00 +10°C° 0 mm 3 mps 759 mmHg 53%
    16:00 +9°C° 0 mm 3 mps 759 mmHg 57%
    17:00 +7°C° 0 mm 3 mps 759 mmHg 61%
    18:00 +5°C° 0 mm 3 mps 759 mmHg 65%
    19:00 +5°C° 0 mm 4 mps 759 mmHg 65%
    20:00 +5°C° 0 mm 4 mps 759 mmHg 66%
    21:00 +5°C° 0 mm 5 mps 759 mmHg 67%
    22:00 +3°C° 0 mm 5 mps 759 mmHg 67%
    23:00 +3°C° 0 mm 5 mps 759 mmHg 67%

    12 December, Monday

    Time Temperature Precipitation Wind Pressure Humidity
    00:00 +3°C° 0 mm 6 mps 758 mmHg 67%
    01:00 +3°C° 0 mm 6 mps 758 mmHg 66%
    02:00 +3°C° 0 mm 6 mps 758 mmHg 66%
    03:00 +3°C° 0 mm 6 mps 758 mmHg 66%
    04:00 +3°C° 0 mm 6 mps 759 mmHg 66%
    05:00 +3°C° 0 mm 5 mps 759 mmHg 67%
    06:00 +2°C° 0 mm 5 mps 759 mmHg 67%
    07:00 +3°C° 0 mm 5 mps 759 mmHg 63%
    08:00 +5°C° 0 mm 5 mps 760 mmHg 60%
    09:00 +6°C° 0 mm 4 mps 760 mmHg 56%
    10:00 +8°C° 0 mm 4 mps 759 mmHg 53%
    11:00 +9°C° 0 mm 5 mps 759 mmHg 49%
    12:00 +10°C° 0 mm 5 mps 758 mmHg 45%
    13:00 +10°C° 0 mm 5 mps 757 mmHg 46%
    14:00 +11°C° 0 mm 4 mps 757 mmHg 47%
    15:00 +11°C° 0 mm 4 mps 756 mmHg 48%
    16:00 +10°C° 0 mm 4 mps 756 mmHg 52%
    17:00 +8°C° 0 mm 4 mps 756 mmHg 56%
    18:00 +7°C° 0 mm 4 mps 756 mmHg 59%
    19:00 +7°C° 0 mm 4 mps 755 mmHg 61%
    20:00 +6°C° 0 mm 4 mps 755 mmHg 62%
    21:00 +6°C° 0 mm 4 mps 755 mmHg 64%
    22:00 +6°C° 0 mm 4 mps 755 mmHg 63%
    23:00 +5°C° 0 mm 4 mps 755 mmHg 63%

    13 December, Tuesday

    Time Temperature Precipitation Wind Pressure Humidity
    00:00 +5°C° 0 mm 4 mps 754 mmHg 62%
    01:00 +5°C° 0 mm 4 mps 754 mmHg 63%
    02:00 +5°C° 0 mm 4 mps 754 mmHg 63%
    03:00 +5°C° 0 mm 4 mps 754 mmHg 64%
    04:00 +5°C° 0 mm 4 mps 754 mmHg 64%
    05:00 +5°C° 0 mm 3 mps 754 mmHg 63%
    06:00 +5°C° 0 mm 3 mps 754 mmHg 63%
    07:00 +7°C° 0 mm 3 mps 754 mmHg 61%
    08:00 +8°C° 0 mm 3 mps 755 mmHg 59%
    09:00 +9°C° 0 mm 2 mps 755 mmHg 56%
    10:00 +10°C° 0 mm 3 mps 755 mmHg 52%
    11:00 +11°C° 0 mm 3 mps 754 mmHg 48%
    12:00 +13°C° 0 mm 3 mps 754 mmHg 44%
    13:00 +14°C° 0 mm 2 mps 754 mmHg 45%
    14:00 +14°C° 0 mm 2 mps 754 mmHg 46%
    15:00 +14°C° 0 mm 1 mps 754 mmHg 47%
    16:00 +12°C° 0 mm 1 mps 754 mmHg 51%
    17:00 +11°C° 0 mm 1 mps 754 mmHg 55%
    18:00 +9°C° 0 mm 1 mps 754 mmHg 60%
    19:00 +9°C° 0 mm 1 mps 754 mmHg 61%
    20:00 +8°C° 0 mm 1 mps 754 mmHg 62%
    21:00 +8°C° 0 mm 1 mps 754 mmHg 63%
    22:00 +8°C° 0 mm 1 mps 754 mmHg 65%
    23:00 +8°C° 0 mm 1 mps 754 mmHg 66%

    14 December, Wednesday

    Time Temperature Precipitation Wind Pressure Humidity
    00:00 +7°C° 0 mm 1 mps 754 mmHg 68%
    01:00 +6°C° 0 mm 2 mps 755 mmHg 70%
    02:00 +6°C° 0 mm 2 mps 755 mmHg 72%
    03:00 +5°C° 0 mm 3 mps 755 mmHg 74%
    04:00 +5°C° 0 mm 4 mps 756 mmHg 79%
    05:00 +5°C° 0 mm 5 mps 756 mmHg 84%
    06:00 +5°C° 0 mm 5 mps 757 mmHg 89%
    07:00 +4°C° 0 mm 6 mps 757 mmHg 86%
    08:00 +5°C° 0 mm 6 mps 758 mmHg 83%
    09:00 +6°C° 0 mm 7 mps 758 mmHg 80%
    10:00 +8°C° 0 mm 7 mps 758 mmHg 76%
    11:00 +8°C° 0 mm 7 mps 758 mmHg 72%
    12:00 +9°C° 0 mm 7 mps 758 mmHg 67%
    13:00 +9°C° 0 mm 7 mps 758 mmHg 69%
    14:00 +8°C° 0 mm 7 mps 758 mmHg 70%
    15:00 +7°C° 0 mm 8 mps 758 mmHg 72%
    16:00 +6°C° 0.2 mm 8 mps 759 mmHg 74%
    17:00 +6°C° 0.2 mm 9 mps 759 mmHg 75%
    18:00 +5°C° 0.2 mm 9 mps 759 mmHg 77%
    19:00 +5°C° 0.3 mm 9 mps 759 mmHg 77%
    20:00 +3°C° 0.3 mm 9 mps 760 mmHg 76%
    21:00 +3°C° 0.3 mm 9 mps 760 mmHg 76%
    22:00 +3°C° 0.2 mm 9 mps 760 mmHg 76%
    23:00 +3°C° 0.2 mm 9 mps 760 mmHg 76%
    Show more